Location: Newark
(44.3681°N, 100.3364°W)
Time: 07:40:26
(UTC+00:00)

Explorer 7 - Pass Details

Date: 20 February 2020
Orbit: 485 x 679 km, 50.3° (Epoch: 06 April)

Event Time Altitude Azimuth Distance (km) Brightness Sun altitude
Rises 21:02:38 0° 266° (W) 2,901 11.0 27.7°
Reaches altitude 10° 21:05:06 10° 273° (W) 1,962 10.2 27.4°
Maximum altitude 21:09:24 44° 346° (NNW) 808 7.7 26.9°
Drops below altitude 10° 21:13:28 10° 60° (ENE) 1,845 9.1 26.5°
Sets 21:15:43 0° 67° (ENE) 2,706 9.9 26.2°
